Time,TemperatureF,DewpointF,PressureIn,WindDirection,WindDirectionDegrees,WindSpeedMPH,WindSpeedGustMPH,Humidity,HourlyPrecipIn,Conditions,Clouds,dailyrainin,SoftwareType,DateUTC
2013-05-26 00:02:00,70.0,67.0,30.05,North,0,0.0,0.0,90,0.00,,,1.69,,2013-05-26 05:02:00,
2013-05-26 00:12:00,70.0,67.0,30.05,North,0,0.0,0.0,90,0.00,,,1.69,,2013-05-26 05:12:00,
2013-05-26 00:22:00,70.0,67.0,30.05,North,0,0.0,0.0,90,0.00,,,1.69,,2013-05-26 05:22:00,
2013-05-26 00:32:00,70.0,67.0,30.06,North,0,0.0,0.0,89,0.00,,,1.69,,2013-05-26 05:32:00,
2013-05-26 00:42:00,70.0,67.0,30.06,North,0,0.0,0.0,89,0.00,,,1.69,,2013-05-26 05:42:00,
2013-05-26 00:52:00,70.0,67.0,30.06,North,0,0.0,0.0,89,0.00,,,1.69,,2013-05-26 05:52:00,
2013-05-26 01:01:00,70.0,67.0,30.05,North,0,0.0,0.0,90,0.00,,,1.69,,2013-05-26 06:01:00,
2013-05-26 01:12:00,70.0,67.0,30.05,North,0,0.0,0.0,90,0.00,,,1.69,,2013-05-26 06:12:00,
2013-05-26 01:22:00,70.0,67.0,30.05,North,0,0.0,0.0,90,0.00,,,1.69,,2013-05-26 06:22:00,
2013-05-26 01:32:00,70.0,67.0,30.04,North,0,0.0,0.0,90,0.00,,,1.69,,2013-05-26 06:32:00,
2013-05-26 01:42:00,70.0,67.0,30.04,North,0,0.0,0.0,90,0.00,,,1.69,,2013-05-26 06:42:00,
2013-05-26 01:52:00,70.0,67.0,30.04,North,0,0.0,0.0,90,0.00,,,1.69,,2013-05-26 06:52:00,
2013-05-26 02:01:00,70.0,67.0,30.02,North,0,0.0,0.0,90,0.00,,,1.67,,2013-05-26 07:01:00,
2013-05-26 02:11:00,70.0,67.0,30.02,North,0,0.0,0.0,90,0.00,,,1.67,,2013-05-26 07:11:00,
2013-05-26 02:21:00,71.0,68.0,30.03,North,0,0.0,0.0,90,0.00,,,1.67,,2013-05-26 07:21:00,
2013-05-26 02:31:00,71.0,68.0,30.03,North,0,0.0,0.0,90,0.00,,,1.67,,2013-05-26 07:31:00,
2013-05-26 02:42:00,71.0,68.0,30.03,North,0,0.0,0.0,90,0.00,,,1.67,,2013-05-26 07:42:00,
2013-05-26 02:52:00,71.0,68.0,30.02,North,0,0.0,0.0,90,0.00,,,1.67,,2013-05-26 07:52:00,
2013-05-26 03:01:00,71.0,68.0,30.02,North,0,0.0,0.0,90,0.00,,,1.67,,2013-05-26 08:01:00,
2013-05-26 03:11:00,71.0,68.0,30.02,North,0,0.0,0.0,90,0.00,,,1.67,,2013-05-26 08:11:00,
2013-05-26 03:21:00,71.0,68.0,30.02,North,0,0.0,0.0,90,0.00,,,1.67,,2013-05-26 08:21:00,
2013-05-26 03:32:00,71.0,68.0,30.02,North,0,0.0,0.0,90,0.00,,,1.67,,2013-05-26 08:32:00,
2013-05-26 03:42:00,71.0,68.0,30.02,North,0,0.0,0.0,90,0.00,,,1.67,,2013-05-26 08:42:00,
2013-05-26 03:53:00,71.0,68.0,30.02,North,0,0.0,0.0,90,0.00,,,1.67,,2013-05-26 08:53:00,
2013-05-26 04:01:00,71.0,68.0,30.02,North,0,0.0,0.0,90,0.00,,,1.67,,2013-05-26 09:01:00,
2013-05-26 04:11:00,71.0,68.0,30.02,North,0,0.0,0.0,90,0.00,,,1.67,,2013-05-26 09:11:00,
2013-05-26 04:21:00,71.0,68.0,30.02,North,0,0.0,0.0,90,0.00,,,1.67,,2013-05-26 09:21:00,
2013-05-26 04:33:00,71.0,68.0,30.03,North,0,0.0,0.0,90,0.00,,,1.67,,2013-05-26 09:33:00,
2013-05-26 04:42:00,71.0,68.0,30.03,North,0,0.0,0.0,90,0.00,,,1.67,,2013-05-26 09:42:00,
2013-05-26 04:52:00,71.0,68.0,30.03,North,0,0.0,0.0,90,0.00,,,1.67,,2013-05-26 09:52:00,
2013-05-26 05:02:00,71.0,68.0,30.01,North,0,0.0,0.0,90,0.00,,,1.67,,2013-05-26 10:02:00,
2013-05-26 05:12:00,71.0,68.0,30.01,North,0,0.0,0.0,90,0.00,,,1.67,,2013-05-26 10:12:00,
2013-05-26 05:23:00,70.0,67.0,30.01,North,0,0.0,0.0,90,0.00,,,1.67,,2013-05-26 10:23:00,
2013-05-26 05:33:00,70.0,67.0,30.01,North,0,0.0,0.0,90,0.00,,,1.67,,2013-05-26 10:33:00,
2013-05-26 05:42:00,70.0,67.0,30.01,North,0,0.0,0.0,90,0.00,,,1.67,,2013-05-26 10:42:00,
2013-05-26 05:52:00,70.0,67.0,30.01,North,0,0.0,0.0,90,0.00,,,1.67,,2013-05-26 10:52:00,
2013-05-26 06:03:00,70.0,67.0,30.01,North,0,0.0,0.0,90,0.00,,,1.67,,2013-05-26 11:03:00,
2013-05-26 06:11:00,70.0,67.0,30.01,North,0,0.0,0.0,90,0.00,,,1.67,,2013-05-26 11:11:00,
2013-05-26 06:32:00,71.0,68.0,30.02,North,0,0.0,0.0,90,0.02,,,1.59,,2013-05-26 11:32:00,
2013-05-26 06:42:00,71.0,68.0,30.02,North,0,0.0,0.0,90,0.02,,,1.59,,2013-05-26 11:42:00,
2013-05-26 06:52:00,70.0,67.0,30.01,North,0,0.0,0.0,90,0.04,,,1.16,,2013-05-26 11:52:00,
2013-05-26 07:02:00,70.0,67.0,30.02,North,0,0.0,0.0,90,0.04,,,1.16,,2013-05-26 12:02:00,
2013-05-26 07:12:00,70.0,67.0,30.02,North,0,0.0,0.0,90,0.04,,,1.16,,2013-05-26 12:12:00,
2013-05-26 07:21:00,70.0,67.0,30.02,North,0,0.0,0.0,90,0.04,,,1.16,,2013-05-26 12:21:00,
2013-05-26 07:32:00,70.0,67.0,30.03,North,0,0.0,0.0,90,0.04,,,1.16,,2013-05-26 12:32:00,
2013-05-26 07:42:00,70.0,67.0,30.03,North,0,0.0,0.0,90,0.04,,,1.16,,2013-05-26 12:42:00,
2013-05-26 07:52:00,70.0,67.0,30.02,North,0,0.0,0.0,90,0.00,,,0.96,,2013-05-26 12:52:00,
2013-05-26 08:02:00,70.0,67.0,30.01,North,0,0.0,0.0,90,0.00,,,0.96,,2013-05-26 13:02:00,
2013-05-26 08:11:00,70.0,67.0,30.01,North,0,0.0,0.0,90,0.00,,,0.96,,2013-05-26 13:11:00,
2013-05-26 08:21:00,70.0,67.0,30.02,North,0,0.0,0.0,90,0.00,,,0.96,,2013-05-26 13:21:00,
2013-05-26 08:32:00,70.0,67.0,30.02,North,0,0.0,0.0,90,0.00,,,0.96,,2013-05-26 13:32:00,
2013-05-26 08:42:00,70.0,67.0,30.02,North,0,0.0,0.0,90,0.00,,,0.96,,2013-05-26 13:42:00,
2013-05-26 08:52:00,70.0,67.0,30.02,North,0,0.0,0.0,90,0.00,,,0.96,,2013-05-26 13:52:00,
2013-05-26 09:02:00,72.0,69.0,30.04,North,0,0.0,0.0,90,0.00,,,0.76,,2013-05-26 14:02:00,
2013-05-26 09:11:00,72.0,69.0,30.04,North,0,0.0,0.0,90,0.00,,,0.76,,2013-05-26 14:11:00,
2013-05-26 09:21:00,72.0,69.0,30.04,North,0,0.0,0.0,90,0.00,,,0.76,,2013-05-26 14:21:00,
2013-05-26 09:32:00,74.0,70.0,30.04,North,0,0.0,0.0,88,0.00,,,0.76,,2013-05-26 14:32:00,
2013-05-26 09:42:00,74.0,70.0,30.04,North,0,0.0,0.0,87,0.00,,,0.61,,2013-05-26 14:42:00,
2013-05-26 09:52:00,74.0,70.0,30.04,North,0,0.0,0.0,87,0.00,,,0.61,,2013-05-26 14:52:00,
2013-05-26 10:01:00,74.0,70.0,30.04,North,0,0.0,0.0,87,0.00,,,0.61,,2013-05-26 15:01:00,
2013-05-26 10:12:00,74.0,70.0,30.04,North,0,0.0,0.0,87,0.00,,,0.61,,2013-05-26 15:12:00,
2013-05-26 10:22:00,74.0,70.0,30.04,North,0,0.0,0.0,87,0.00,,,0.61,,2013-05-26 15:22:00,
2013-05-26 10:33:00,74.0,70.0,30.04,North,0,0.0,0.0,88,0.00,,,0.61,,2013-05-26 15:33:00,
2013-05-26 10:43:00,74.0,70.0,30.04,North,0,0.0,0.0,88,0.00,,,0.61,,2013-05-26 15:43:00,
2013-05-26 10:53:00,74.0,70.0,30.04,North,0,0.0,0.0,88,0.00,,,0.61,,2013-05-26 15:53:00,
2013-05-26 11:03:00,77.0,71.0,30.05,North,0,0.0,0.0,82,0.00,,,0.06,,2013-05-26 16:03:00,
2013-05-26 11:12:00,77.0,71.0,30.05,North,0,0.0,0.0,82,0.00,,,0.06,,2013-05-26 16:12:00,
2013-05-26 11:23:00,77.0,71.0,30.05,North,0,0.0,0.0,82,0.00,,,0.06,,2013-05-26 16:23:00,
2013-05-26 11:33:00,77.0,71.0,30.05,North,0,0.0,0.0,82,0.00,,,0.06,,2013-05-26 16:33:00,
2013-05-26 11:42:00,79.0,72.0,30.04,North,0,0.0,0.0,78,0.00,,,0.06,,2013-05-26 16:42:00,
2013-05-26 11:53:00,79.0,72.0,30.04,North,0,0.0,0.0,78,0.00,,,0.06,,2013-05-26 16:53:00,
2013-05-26 12:02:00,79.0,72.0,30.04,North,0,0.0,0.0,78,0.00,,,0.06,,2013-05-26 17:02:00,
2013-05-26 12:11:00,79.0,72.0,30.04,North,0,0.0,0.0,78,0.00,,,0.06,,2013-05-26 17:11:00,
2013-05-26 12:22:00,80.0,71.0,30.03,North,0,0.0,0.0,73,0.00,,,0.04,,2013-05-26 17:22:00,
2013-05-26 12:32:00,80.0,71.0,30.03,North,0,0.0,0.0,73,0.00,,,0.04,,2013-05-26 17:32:00,
2013-05-26 12:42:00,81.0,72.0,30.02,North,0,0.0,0.0,73,0.00,,,0.04,,2013-05-26 17:42:00,
2013-05-26 12:52:00,81.0,72.0,30.02,North,0,0.0,0.0,73,0.00,,,0.04,,2013-05-26 17:52:00,
2013-05-26 13:01:00,81.0,72.0,30.02,North,0,0.0,0.0,73,0.00,,,0.04,,2013-05-26 18:01:00,
2013-05-26 13:12:00,81.0,72.0,30.02,North,0,0.0,0.0,73,0.00,,,0.04,,2013-05-26 18:12:00,
2013-05-26 13:21:00,83.0,72.0,30.01,North,0,0.0,0.0,70,0.00,,,0.04,,2013-05-26 18:21:00,
2013-05-26 13:32:00,83.0,72.0,30.01,North,0,0.0,0.0,70,0.00,,,0.04,,2013-05-26 18:32:00,
2013-05-26 13:42:00,83.0,72.0,30.01,North,0,0.0,0.0,70,0.00,,,0.04,,2013-05-26 18:42:00,
2013-05-26 13:52:00,83.0,72.0,30.01,North,0,0.0,0.0,70,0.00,,,0.04,,2013-05-26 18:52:00,
2013-05-26 14:01:00,85.0,73.0,30.01,North,0,0.0,0.0,67,0.00,,,0.04,,2013-05-26 19:01:00,
2013-05-26 14:11:00,85.0,73.0,30.01,North,0,0.0,0.0,67,0.00,,,0.04,,2013-05-26 19:11:00,
2013-05-26 14:22:00,85.0,73.0,30.01,North,0,0.0,0.0,67,0.00,,,0.04,,2013-05-26 19:22:00,
2013-05-26 14:32:00,84.0,72.0,30.01,North,0,0.0,0.0,67,0.00,,,0.04,,2013-05-26 19:32:00,
2013-05-26 14:42:00,84.0,72.0,30.01,North,0,0.0,0.0,67,0.00,,,0.04,,2013-05-26 19:42:00,
2013-05-26 14:52:00,84.0,72.0,30.01,North,0,0.0,0.0,67,0.00,,,0.04,,2013-05-26 19:52:00,
2013-05-26 15:02:00,86.0,73.0,30.00,North,0,0.0,0.0,66,0.00,,,0.04,,2013-05-26 20:02:00,
2013-05-26 15:11:00,86.0,73.0,30.00,North,0,0.0,0.0,66,0.00,,,0.04,,2013-05-26 20:11:00,
2013-05-26 15:22:00,86.0,73.0,30.00,North,0,0.0,0.0,66,0.00,,,0.04,,2013-05-26 20:22:00,
2013-05-26 15:32:00,87.0,73.0,30.00,North,0,0.0,0.0,63,0.00,,,0.04,,2013-05-26 20:32:00,
2013-05-26 15:42:00,87.0,73.0,30.00,North,0,0.0,0.0,63,0.00,,,0.04,,2013-05-26 20:42:00,
2013-05-26 15:52:00,87.0,73.0,30.00,North,0,0.0,0.0,63,0.00,,,0.04,,2013-05-26 20:52:00,
2013-05-26 16:02:00,85.0,74.0,29.98,North,0,0.0,0.0,69,0.00,,,0.04,,2013-05-26 21:02:00,
2013-05-26 16:11:00,85.0,74.0,29.98,North,0,0.0,0.0,69,0.00,,,0.04,,2013-05-26 21:11:00,
2013-05-26 16:22:00,83.0,73.0,29.98,North,0,0.0,0.0,72,0.00,,,0.04,,2013-05-26 21:22:00,
2013-05-26 16:33:00,81.0,72.0,29.98,North,0,0.0,0.0,74,0.00,,,0.04,,2013-05-26 21:33:00,
2013-05-26 16:43:00,81.0,72.0,29.98,North,0,0.0,0.0,74,0.00,,,0.04,,2013-05-26 21:43:00,
2013-05-26 16:53:00,82.0,72.0,29.97,North,0,0.0,0.0,71,0.00,,,0.04,,2013-05-26 21:53:00,
2013-05-26 17:02:00,83.0,73.0,29.96,North,0,0.0,0.0,71,0.00,,,0.04,,2013-05-26 22:02:00,
2013-05-26 17:12:00,83.0,73.0,29.96,North,0,0.0,0.0,71,0.00,,,0.04,,2013-05-26 22:12:00,
2013-05-26 17:23:00,83.0,73.0,29.96,North,0,0.0,0.0,71,0.00,,,0.04,,2013-05-26 22:23:00,
2013-05-26 17:33:00,81.0,70.0,29.97,North,0,0.0,0.0,70,0.00,,,0.04,,2013-05-26 22:33:00,
2013-05-26 17:42:00,81.0,69.0,29.97,North,0,0.0,0.0,68,0.00,,,0.04,,2013-05-26 22:42:00,
2013-05-26 17:53:00,81.0,69.0,29.97,North,0,0.0,0.0,68,0.00,,,0.04,,2013-05-26 22:53:00,
2013-05-26 18:02:00,81.0,69.0,29.97,North,0,0.0,0.0,68,0.00,,,0.04,,2013-05-26 23:02:00,
2013-05-26 18:11:00,81.0,69.0,29.97,North,0,0.0,0.0,68,0.00,,,0.04,,2013-05-26 23:11:00,
2013-05-26 18:22:00,80.0,70.0,29.97,North,0,0.0,0.0,71,0.00,,,0.04,,2013-05-26 23:22:00,
2013-05-26 18:32:00,81.0,71.0,29.96,North,0,0.0,0.0,71,0.00,,,0.04,,2013-05-26 23:32:00,
2013-05-26 18:43:00,81.0,71.0,29.96,North,0,0.0,0.0,71,0.00,,,0.04,,2013-05-26 23:43:00,
2013-05-26 18:52:00,81.0,70.0,29.96,North,0,0.0,0.0,70,0.00,,,0.04,,2013-05-26 23:52:00,
2013-05-26 19:02:00,81.0,70.0,29.95,North,0,0.0,0.0,69,0.00,,,0.04,,2013-05-27 00:02:00,
2013-05-26 19:11:00,81.0,70.0,29.95,North,0,0.0,0.0,69,0.00,,,0.04,,2013-05-27 00:11:00,
2013-05-26 19:21:00,80.0,68.0,29.95,North,0,0.0,0.0,67,0.00,,,0.04,,2013-05-27 00:21:00,
2013-05-26 19:32:00,80.0,68.0,29.96,North,0,0.0,0.0,68,0.00,,,0.04,,2013-05-27 00:32:00,
2013-05-26 19:41:00,79.0,68.0,29.95,North,0,0.0,0.0,69,0.00,,,0.04,,2013-05-27 00:41:00,
2013-05-26 19:52:00,79.0,68.0,29.95,North,0,0.0,0.0,69,0.00,,,0.04,,2013-05-27 00:52:00,
2013-05-26 20:01:00,78.0,67.0,29.95,North,0,0.0,0.0,69,0.00,,,0.04,,2013-05-27 01:01:00,
2013-05-26 20:11:00,78.0,67.0,29.95,North,0,0.0,0.0,69,0.00,,,0.04,,2013-05-27 01:11:00,
2013-05-26 20:22:00,78.0,67.0,29.95,North,0,0.0,0.0,69,0.00,,,0.04,,2013-05-27 01:22:00,
2013-05-26 20:31:00,77.0,67.0,29.95,North,0,0.0,0.0,72,0.00,,,0.04,,2013-05-27 01:31:00,
2013-05-26 20:42:00,76.0,67.0,29.95,North,0,0.0,0.0,73,0.00,,,0.04,,2013-05-27 01:42:00,
2013-05-26 20:52:00,76.0,67.0,29.95,North,0,0.0,0.0,73,0.00,,,0.04,,2013-05-27 01:52:00,
2013-05-26 21:01:00,75.0,67.0,29.95,North,0,0.0,0.0,75,0.00,,,0.04,,2013-05-27 02:01:00,
2013-05-26 21:11:00,75.0,67.0,29.95,North,0,0.0,0.0,75,0.00,,,0.04,,2013-05-27 02:11:00,
2013-05-26 21:21:00,75.0,67.0,29.96,North,0,0.0,0.0,76,0.00,,,0.04,,2013-05-27 02:21:00,
2013-05-26 21:32:00,74.0,66.0,29.96,North,0,0.0,0.0,77,0.00,,,0.04,,2013-05-27 02:32:00,
2013-05-26 21:42:00,74.0,66.0,29.96,North,0,0.0,0.0,77,0.00,,,0.04,,2013-05-27 02:42:00,
2013-05-26 21:52:00,74.0,67.0,29.95,North,0,0.0,0.0,78,0.00,,,0.04,,2013-05-27 02:52:00,
2013-05-26 22:02:00,73.0,66.0,29.96,North,0,0.0,0.0,80,0.00,,,0.04,,2013-05-27 03:02:00,
2013-05-26 22:11:00,73.0,66.0,29.96,North,0,0.0,0.0,80,0.00,,,0.04,,2013-05-27 03:11:00,
2013-05-26 22:21:00,73.0,66.0,29.97,North,0,0.0,0.0,80,0.00,,,0.04,,2013-05-27 03:21:00,
2013-05-26 22:33:00,73.0,67.0,29.98,North,0,0.0,0.0,81,0.00,,,0.04,,2013-05-27 03:33:00,
2013-05-26 22:42:00,73.0,67.0,29.98,North,0,0.0,0.0,81,0.00,,,0.04,,2013-05-27 03:42:00,
2013-05-26 22:53:00,73.0,67.0,29.98,North,0,0.0,0.0,81,0.00,,,0.04,,2013-05-27 03:53:00,
2013-05-26 23:02:00,72.0,67.0,29.99,North,0,0.0,0.0,84,0.00,,,0.04,,2013-05-27 04:02:00,
2013-05-26 23:12:00,72.0,67.0,29.99,North,0,0.0,0.0,84,0.00,,,0.04,,2013-05-27 04:12:00,
2013-05-26 23:23:00,72.0,67.0,30.00,North,0,0.0,0.0,84,0.00,,,0.04,,2013-05-27 04:23:00,
2013-05-26 23:33:00,72.0,67.0,30.00,North,0,0.0,0.0,85,0.00,,,0.04,,2013-05-27 04:33:00,
2013-05-26 23:42:00,71.0,67.0,30.00,North,0,0.0,0.0,86,0.00,,,0.04,,2013-05-27 04:42:00,
2013-05-26 23:52:00,71.0,67.0,30.00,North,0,0.0,0.0,86,0.00,,,0.04,,2013-05-27 04:52:00,